GORIZONT 20 [-]

Last updated on Tue Jun 27 2023 00:03:00 GMT+0000 (Coordinated Universal Time)

1 20659U 90054A 23177.04610962 .00000050 00000+0 00000+0 0 9991 2 20659 13.7437 344.0237 0007554 172.6178 192.0062 1.00240946120789
UTC large
Height (km)
Speed (km/s)
/
Latitude / Longitude
Inclination (degrees)
Orbital Period (minutes)
Azimuth
Elevation
Range (km)
Doppler Factor

Next 0 passes for location: London (51.5072 / 0.1276)

Sorry there are no passes over London.
GORIZONT 20 [-]